Location: Stoke Bliss
(52.2667°N, 2.5167°W)
Time: 19:32:40
(UTC+00:00)

HJ-1C - Pass Details

Date: 03 March 2021
Orbit: 428 x 440 km, 97.1° (Epoch: 16 April)

Event Time Altitude Azimuth Distance (km) Brightness Sun altitude
Rises 18:33:19 0° 152° (SSE) 2,418 6.8 -6.9°
Reaches altitude 10° 18:35:22 10° 146° (SE) 1,551 5.8 -7.2°
Maximum altitude 18:38:34 47° 72° (ENE) 595 3.6 -7.7°
Drops below altitude 10° 18:41:47 10° 357° (N) 1,558 6.2 -8.2°
Sets 18:43:50 0° 352° (N) 2,429 7.2 -8.5°
